Location: SE Lincoln, NE
(40.7805°N, 96.6275°W)
Time: 21:07:04
(UTC-05:00)

Daily predictions for brighter satellites

Satellite Brightness Start Highest point End
(mag) Time Altitude Azimuth Time Altitude Azimuth Time Altitude Azimuth
YAOGAN 1 2.6 19:04:42 10° SSE 19:08:58 65° ENE 19:13:16 10° N
ALOS 3.2 19:06:38 10° SE 19:10:33 28° ENE 19:14:30 10° N
Meteor 2-15 4.4 19:04:52 10° N 19:10:59 76° E 19:17:06 10° SSE
CORIOLIS 4.3 19:06:28 10° SSE 19:11:51 83° WSW 19:17:17 10° NNW
GP-B 3.4 19:09:59 10° NNE 19:14:14 44° E 19:18:28 10° SSE
Abrixas rocket 2.6 19:11:40 10° WSW 19:14:55 58° NNW 19:18:11 10° NE
FENGYUN 3A 4.3 19:10:30 10° SE 19:15:16 33° ENE 19:20:04 10° N
Cosmos 1703 4.2 19:12:26 10° NNE 19:15:48 26° ENE 19:19:08 10° SE
CZ-4 R/B 1.9 19:12:09 10° S 19:16:22 71° W 19:20:33 10° NNW
Landsat 4 4.3 19:14:40 10° N 19:18:21 61° WNW 19:22:01 10° SSW
MOS 1 4.3 19:13:11 10° SSE 19:18:46 64° ENE 19:24:23 10° N
CZ-2C R/B 4.1 19:15:34 10° N 19:20:06 69° WNW 19:24:31 10° SSW
Meteor 2-14 Rocket 4.4 19:14:46 10° S 19:20:50 75° E 19:26:55 10° N
Meteor 2-16 Rocket 4.4 19:17:18 10° S 19:23:19 67° E 19:29:24 10° NNE
Cosmos 1400 Rocket 3.2 19:21:13 10° N 19:25:05 41° ENE 19:28:52 10° SSE
Cosmos-2242 3.3 19:21:20 10° SSW 19:25:35 73° W 19:29:51 10° N
Tiangong 1 1.9 19:24:15 10° W 19:26:48 37° SSW 19:29:19 10° SE
Cosmos 2219 Rocket 4.0 19:25:03 10° NNE 19:27:10 12° NE 19:29:17 10° ENE
Cosmos 1624 Rocket 4.0 19:24:26 10° NNW 19:29:41 84° ENE 19:34:55 10° SSE
Cosmos 1371 Rocket 4.3 19:26:37 10° NNW 19:32:00 78° WSW 19:37:20 10° SSE
ERS-2 3.5 19:28:31 10° S 19:32:03 44° W 19:35:37 10° NNW
SKYMED 2 3.5 19:27:48 10° NNE 19:32:10 76° ESE 19:36:29 10° S
Thor Agena Rocket 4.2 19:28:09 10° NE 19:32:38 30° E 19:37:04 10° SSE
Meteor 1-28 Rocket 4.2 19:28:58 10° N 19:32:40 50° WNW 19:36:19 10° SSW
GRACE-2 4.5 19:33:17 10° SSE 19:35:36 29° E 19:37:55 10° NNE
SL-16 R/B 2.4 19:31:31 10° NNW 19:37:12 76° WSW 19:42:51 10° SSE
GRACE-1 4.3 19:35:03 10° SSE 19:37:25 33° E 19:39:48 10° NNE
Cosmos 1908 4.1 19:34:53 10° SSE 19:38:16 28° E 19:41:39 10° NNE
Cosmos 1743 Rocket 3.5 19:34:31 10° N 19:38:53 69° E 19:43:15 10° SSE
Iridium 4 Rocket 4.3 19:36:01 10° SE 19:40:48 33° E 19:45:53 10° NNE
Cosmos 2151 3.0 19:37:38 10° N 19:41:52 56° E 19:46:03 10° SSE
Cosmos 1842 Rocket 3.5 19:41:19 10° S 19:45:47 74° E 19:50:14 10° NNE
Delta 2 Rocket 4.4 19:43:01 10° SW 19:46:01 25° SSE 19:47:45 17° SE
H-2A R/B 3.7 19:43:01 10° SE 19:46:19 28° ENE 19:49:41 10° NNE
Resurs 01 Rocket 3.5 19:49:59 13° NE 19:49:59 13° NE 19:51:23 10° NNE
Cosmos 2237 Rocket 4.1 19:53:25 10° NNE 19:55:13 11° NE 19:55:40 11° NE
ISS -1.4 19:53:36 10° W 19:56:14 22° SW 19:58:51 10° S
FREGAT/IRIS 3.1 19:56:04 31° ESE 19:56:41 35° ENE 19:59:28 10° N
Cosmos 2221 2.8 19:53:17 10° SSE 19:57:20 41° E 20:01:25 10° NNE
Cosmos 2366 rocket 4.3 19:52:09 10° SSW 19:58:22 69° W 20:04:33 10° N
Cosmos 44 Rocket 4.3 19:55:00 10° SSE 19:58:38 23° ESE 19:58:42 23° ESE
Cosmos 1500 Rocket 3.5 19:56:55 10° N 20:01:17 88° W 20:05:36 10° S
Cosmos 1315 Rocket 2.8 20:02:02 10° N 20:06:04 63° E 20:10:07 10° SSE
SPOT 3 Rocket 4.2 20:01:12 10° S 20:06:18 58° W 20:11:27 10° NNW
Cosmos 158 Rocket 4.1 20:03:16 10° S 20:08:01 45° ESE 20:12:54 10° NNE
Cosmos 921 Rocket 3.0 20:04:13 10° N 20:08:38 58° ENE 20:11:50 18° SSE
BREEZE-M DEB (TANK) 2.4 20:07:12 10° WNW 20:09:03 31° SW 20:09:32 27° S
HJ-1C 4.3 20:10:01 32° NE 20:10:01 32° NE 20:12:28 10° N
COSMOS 2428 3.1 20:09:08 10° N 20:14:28 40° ENE 20:16:20 31° E
Cosmos 1269 Rocket 4.4 20:09:45 10° SSE 20:14:34 37° ESE 20:16:59 24° NE
BREEZE-M DEB (TANK) 3.1 20:13:11 10° W 20:15:03 28° NNW 20:15:07 28° NNW
Cosmos 2058 3.5 20:12:05 10° NNW 20:16:13 58° W 20:20:16 10° S
Cosmos 2333 Rocket 3.3 20:13:16 10° N 20:17:53 24° NE 20:18:02 24° NE
COSMO-SKYMED 1 4.5 20:16:15 10° N 20:20:06 31° WNW 20:23:56 10° SW
Cosmos 1833 4.4 20:15:10 10° SSW 20:20:51 71° WNW 20:26:31 10° NNE
RESURS DK-1 2.2 20:16:55 10° NNW 20:21:05 87° ENE 20:23:04 30° SSE
Cosmos 2098 Rocket 3.2 20:17:13 10° SSE 20:21:10 54° E 20:26:12 10° NNE
Cosmos 1626 4.0 20:17:57 10° NNW 20:21:19 32° W 20:24:39 10° SSW
Cosmos 2360 Rocket 2.2 20:15:47 10° NNW 20:21:28 82° WSW 20:27:08 10° SSE
FengYun 1-2 T 4.1 20:17:50 10° SSE 20:23:20 79° ENE 20:28:50 10° N
Cosmos 2219 3.5 20:20:27 10° S 20:25:51 44° ESE 20:27:40 33° ENE
Cosmos 468 4.3 20:20:46 10° SSW 20:25:57 79° ESE 20:31:13 10° NNE
MOS 1-B Rocket 4.1 20:25:31 35° ESE 20:27:12 45° ENE 20:32:48 10° N
Cosmos 2322 Rocket 4.2 20:22:33 10° NW 20:27:18 29° WSW 20:32:02 10° SSW
SL-24 R/B - RUBIN 2 3.6 20:24:21 10° NNW 20:29:14 89° SW 20:30:52 39° SSE
Lacrosse 5 rocket 4.0 20:29:01 10° NW 20:30:48 12° NNW 20:32:34 10° N
SJ-6B 2.5 20:30:52 70° SE 20:31:12 79° ENE 20:34:57 10° N
SL-8 R/B 3.7 20:28:13 10° WSW 20:33:03 80° NNW 20:34:26 47° NE
Cosmos 1452 Rocket 3.8 20:29:50 10° NNW 20:35:04 68° WSW 20:40:16 10° S
Cosmos 1821 Rocket 3.8 20:29:49 10° S 20:35:55 78° E 20:42:10 10° N
BREEZE-M DEB (TANK) 4.4 20:31:05 10° WNW 20:36:08 87° NNE 20:47:49 25° ESE
Sich 1 4.2 20:32:43 10° N 20:35:08 29° NNE 20:35:08 29° NNE
Cosmos 1000 Rocket 4.4 20:31:47 10° N 20:38:04 89° ENE 20:44:15 10° S
Cosmos 1805 Rocket 3.4 20:35:01 10° N 20:39:25 76° E 20:39:44 71° SE
USA 267 3.1 20:37:01 27° NE 20:40:51 79° SE 20:47:24 10° SW
Cosmos 2239 Rocket 4.4 20:38:48 10° S 20:44:56 89° W 20:51:08 10° N
Cosmos 1934 Rocket 3.9 20:38:56 10° S 20:45:13 70° E 20:51:34 10° NNE
DELTA 2 R/B (1) 3.6 20:40:07 10° W 20:45:42 72° S 20:46:42 58° SE
Atlas Centaur 2 3.4 20:41:28 10° WSW 20:46:03 29° S 20:47:13 27° SSE
Cosmos 2322 4.1 20:41:22 10° NNW 20:47:02 64° WSW 20:51:21 17° S
ALOS 4.2 20:43:50 10° SSW 20:47:54 30° W 20:51:59 10° NW
Spot 2 Rocket 4.2 20:51:35 39° NNE 20:51:35 39° NNE 20:55:04 10° N
Abrixas rocket 4.5 20:49:19 10° WNW 20:51:14 20° NNW 20:51:14 20° NNW
Gbstr 26 Del rocket 4.1 20:47:31 10° NW 20:52:38 47° NNE 20:53:04 46° NE
CZ-4C R/B 2.2 20:53:22 10° SSW 20:57:35 58° S 20:57:35 58° S
Cosmos 2123 Rocket 3.8 20:58:03 10° N 21:04:19 82° E 21:05:33 60° SSE
BREEZE-M DEB (TANK) 3.5 20:57:15 10° WNW 21:11:36 69° NNE 21:11:54 68° NE
Cosmos 2219 Rocket 2.5 21:06:33 10° NNW 21:11:02 55° N 21:11:02 55° N
USA 234 3.7 21:15:23 46° NNE 21:15:26 46° NNE 21:21:36 10° NW
Envisat 4.0 21:26:29 41° NNW 21:26:29 41° NNW 21:29:48 10° NNW
Resurs 01 Rocket 3.5 21:27:35 25° NNW 21:27:35 25° NNW 21:29:31 10° NNW
Centaur D AC-28 4.4 21:28:53 10° SSW 22:06:22 - E 21:30:48 22° S
Cosmos 2237 Rocket 3.7 21:34:45 10° NNW 21:37:31 29° N 21:37:31 29° N
SL-16 R/B 4.4 21:43:29 10° N 21:44:36 15° N 21:44:36 15° N
COSMOS 2428 4.3 21:53:44 10° NW 21:58:24 29° W 21:58:24 29° W
Cosmos 2333 Rocket 3.7 21:56:53 10° NNW 22:00:03 32° NW 22:00:03 32° NW
USA 267 4.5 22:24:25 36° NW 22:24:25 36° NW 22:29:23 10° W
CZ-3A R/B 4.2 22:15:12 10° NW 22:27:05 60° NNW 22:27:05 60° NNW
